Showing default

TRANSIT 5B-1, 670

Orbit data source: Space-Track

TRANSIT 5B-1, 670 is a payload satellite owned by USN BuWeps (US) in LEO that was launched on Sat, 28 Sep 1963 UTC via a THOR ABLESTAR launch vehicle from the Air Force Western Test Range (AFWTR). Payload-class satellites include a variety of spacecraft equipped with specific instruments for various scientific and technological missions. These include communications satellites like Starlink; space stations such as the ISS; scientific satellites like the Hubble; Earth observation satellites from companies like Planet Labs, Umbra, and HawkEye 360; GPS; miniature CubeSats for education and research; and military/defense satellites.

Loading next visibility...
Identifier
670, 1963-038B
Orbit
LEO
Country
Flag of USUS
Related business
Manufacturer
APL
Mission
Spacecraft
Bus & Motor
TRANSIT 5, Unknown motor
Mass
69 kg wet, 69 kg dry
Launch date (UTC)
1963-09-28 (62 years ago)
Launch vehicle
THOR ABLESTAR
Launch site
Air Force Western Test Range (AFWTR)
Object type
Payload
Rocket body
Debris
Shape & HBR
Unknown
Radar Cross Section
Medium (>0.1 m² and <1 m²)

Expand to show TLE details & history
Last TLE update: 23 hours ago

TLE from 23 hours ago
0 TRANSIT 5B-1
1 00670U 63038B   25348.90672255  .00000101  00000-0  15675-3 0  9990
2 00670  89.9686 333.4965 0040781 199.6603 160.2975 13.44650953 49427
Epoch: 2025-12-14T21:45Z
TLE epoch observation values (Epoch: 2025-12-14T21:45:40.828Z)
Latitude
0.00003°
Longitude
-76.73653°
Altitude
1,123.65 km
Speed
7.277 km/s
True Right ascension
22h 13m 59s
True Declination
0° 00' 00"
Sunlit
Object was in daylight at epoch
Visualization orbit readout
Latitude
Unknown
Longitude
Unknown
Altitude
Unknown
Speed
Unknown
Apparent Right ascension
Unknown
Apparent Declination
Unknown
Sunlit
N/A
Visualization observer readout
Local Sidereal Time
19:11:36
Azimuth
Unknown
Elevation
Unknown
Doppler factor
Unknown
Orbital elements
Apogee altitude
1,119.514 km
Perigee altitude
1,058.61 km
Semi-major axis
7,467.199 km
Eccentricity
0.00408
Inclination
89.9686°
RAAN
333.4965°
Arg. of periapsis
199.6603°
True anomaly
160.4543°
Mean anomaly
160.2975°
Eccentric anomaly
160.37597°
Mean motion
3.36362 °/min
Orbital period
107.03 mins
BSTAR
0.00015675
Loading maneuver chart data...
Computing Atmospheric mass density...

Documentation

Showing up to 5 results
|